DW5164 Weather Reports


time (UTC)temp
C
wind
direction
speed
KPH
gust
KPH
rain 1hr
cm
rain 24hr
cm
rain mn
cm
humidity
%
barometer
mb
20260509051049 12 232 0.0 1.6 0.00 0.00 0.00 97 1016.3
20260509045547 12 232 0.0 1.6 0.00 0.00 0.00 97 1016.2
20260509045050 11 232 1.6 4.8 0.00 0.00 0.00 96 1016.2
20260509044047 12 285 1.6 3.2 0.00 0.00 0.00 97 1016.1
20260509043547 12 285 0.0 0.0 0.00 0.00 0.00 97 1016.0
20260509042547 12 313 0.0 1.6 0.00 0.00 0.00 96 1016.1
20260509042047 12 313 0.0 1.6 0.00 0.00 0.00 97 1016.0
20260509041549 12 227 0.0 3.2 0.00 0.00 0.00 97 1016.1
20260509041046 11 214 1.6 4.8 0.00 0.00 0.00 96 1016.1
20260509040547 11 213 3.2 4.8 0.00 0.00 0.00 96 1016.1
20260509040047 11 219 1.6 3.2 0.00 0.00 0.00 96 1016.1
20260509035048 11 217 3.2 4.8 0.00 0.00 0.00 96 1016.0
20260509034547 11 77 1.6 3.2 0.00 0.00 0.00 96 1016.0
20260509034047 12 42 1.6 3.2 0.00 0.00 0.00 96 1015.9
20260509033547 12 49 1.6 3.2 0.00 0.00 0.00 96 1015.9
20260509033047 12 49 0.0 0.0 0.00 0.00 0.00 96 1015.9
20260509032048 12 59 1.6 1.6 0.00 0.00 0.00 96 1015.7
20260509031547 12 59 1.6 4.8 0.00 0.00 0.00 96 1015.7
20260509031046 12 72 1.6 4.8 0.00 0.00 0.00 96 1015.7
20260509030547 12 80 3.2 4.8 0.00 0.00 0.00 96 1015.7
20260509030046 12 80 3.2 3.2 0.00 0.00 0.00 96 1015.7
20260509025547 12 80 0.0 3.2 0.00 0.00 0.00 96 1015.8
20260509025047 12 80 0.0 3.2 0.00 0.00 0.00 96 1015.8
20260509024549 12 80 1.6 3.2 0.00 0.00 0.00 96 1015.9
20260509024047 12 80 0.0 1.6 0.00 0.00 0.00 96 1015.9
20260509023546 12 80 3.2 4.8 0.00 0.00 0.00 96 1015.9
20260509023048 12 80 0.0 0.0 0.00 0.00 0.00 96 1015.9
20260509022547 12 80 0.0 0.0 0.00 0.00 0.00 96 1015.9
20260509022102 12 80 0.0 0.0 0.00 0.00 0.00 96 1016.0
20260509021547 12 80 0.0 0.0 0.00 0.00 0.00 96 1016.0
20260509021047 12 80 0.0 0.0 0.00 0.00 0.00 96 1016.0
20260509020547 12 80 0.0 0.0 0.00 0.00 0.00 96 1016.0
20260509020047 12 80 0.0 0.0 0.00 0.00 0.00 95 1016.0
20260509015547 12 80 0.0 0.0 0.00 0.00 0.00 95 1016.0
20260509014549 12 80 0.0 0.0 0.00 0.00 0.00 95 1015.9
20260509014046 12 80 0.0 0.0 0.00 0.00 0.00 95 1015.9
20260509013046 13 80 0.0 0.0 0.00 0.00 0.00 95 1015.9
20260509012549 13 80 0.0 0.0 0.00 0.00 0.00 95 1015.9
20260509011546 13 80 0.0 0.0 0.00 0.00 0.00 95 1015.8
20260509011047 13 80 0.0 0.0 0.00 0.00 0.00 95 1015.8
20260509010547 13 80 0.0 1.6 0.00 0.00 0.00 95 1015.8
20260509010046 13 80 0.0 1.6 0.00 0.00 0.00 95 1015.8
20260509005547 13 80 1.6 3.2 0.00 0.00 0.00 95 1015.9
20260509005047 13 80 0.0 1.6 0.00 0.00 0.00 94 1015.8
20260509004047 13 80 0.0 0.0 0.00 0.00 0.00 94 1015.8
20260509003547 13 80 1.6 3.2 0.00 0.00 0.00 94 1015.8
20260509003046 13 80 0.0 0.0 0.00 0.00 0.00 94 1015.8
20260509002548 13 80 0.0 0.0 0.00 0.00 0.00 94 1015.8
20260509002049 13 80 0.0 1.6 0.00 0.00 0.00 94 1015.8
20260509001546 13 80 0.0 1.6 0.00 0.00 0.00 94 1015.8
20260509001046 13 80 0.0 3.2 0.00 0.00 0.00 93 1015.7
20260509000047 13 141 1.6 4.8 0.00 0.00 0.00 92 1015.6
20260508235546 13 141 3.2 3.2 0.00 0.00 0.00 92 1015.5
20260508234546 14 184 0.0 0.0 0.00 0.00 0.00 92 1015.5
20260508234047 14 184 0.0 0.0 0.00 0.00 0.00 92 1015.4
20260508233549 14 184 0.0 0.0 0.00 0.00 0.00 91 1015.4
20260508233046 14 184 0.0 0.0 0.00 0.00 0.00 92 1015.5
20260508231546 14 184 0.0 0.0 0.00 0.00 0.00 91 1015.5
20260508231049 14 184 0.0 0.0 0.00 0.00 0.00 91 1015.5
20260508230549 14 184 0.0 0.0 0.00 0.00 0.00 91 1015.5
20260508230046 14 184 0.0 0.0 0.00 0.00 0.00 91 1015.5
20260508225046 14 184 0.0 0.0 0.00 0.00 0.00 91 1015.5
20260508223602 15 184 0.0 0.0 0.00 0.00 0.00 91 1015.5
20260508222546 15 184 0.0 0.0 0.00 0.00 0.00 90 1015.5
20260508222046 15 184 0.0 0.0 0.00 0.00 0.00 90 1015.5
20260508221557 15 184 0.0 0.0 0.00 0.00 0.00 89 1015.6
20260508220546 15 184 0.0 0.0 0.00 0.00 0.00 88 1015.6
20260508215546 15 184 0.0 0.0 0.00 0.00 0.00 88 1015.6
20260508214045 15 184 0.0 0.0 0.00 0.00 0.00 87 1015.5
20260508213553 16 184 0.0 0.0 0.00 0.00 0.00 87 1015.4
20260508213046 16 184 0.0 0.0 0.00 0.00 0.00 86 1015.5
20260508212547 16 184 0.0 0.0 0.00 0.00 0.00 86 1015.5
20260508211545 16 184 0.0 0.0 0.00 0.00 0.00 85 1015.5
20260508211046 16 184 0.0 0.0 0.00 0.00 0.00 85 1015.5
20260508210047 16 184 0.0 0.0 0.00 0.00 0.00 84 1015.5
20260508205546 16 184 0.0 0.0 0.00 0.00 0.00 84 1015.5
20260508205045 16 184 0.0 0.0 0.00 0.00 0.00 83 1015.5
20260508204546 17 184 0.0 0.0 0.00 0.00 0.00 83 1015.4
20260508204051 17 184 0.0 3.2 0.00 0.00 0.00 82 1015.4
20260508203546 17 181 1.6 3.2 0.00 0.00 0.00 82 1015.4
20260508203046 17 182 1.6 3.2 0.00 0.00 0.00 81 1015.4
20260508202045 18 182 3.2 4.8 0.00 0.00 0.00 79 1015.3
20260508201545 18 180 4.8 4.8 0.00 0.00 0.00 79 1015.3
20260508201048 18 177 3.2 4.8 0.00 0.00 0.00 79 1015.3
20260508200545 17 186 4.8 8.0 0.00 0.00 0.00 80 1015.3
20260508195600 17 173 3.2 4.8 0.00 0.00 0.00 83 1015.2
20260508195045 17 118 1.6 3.2 0.00 0.00 0.00 82 1015.1
20260508194545 17 118 1.6 3.2 0.00 0.00 0.00 82 1015.1
20260508194045 17 118 1.6 3.2 0.00 0.00 0.00 82 1015.0
20260508193545 17 118 1.6 3.2 0.00 0.00 0.00 81 1015.0
20260508193051 17 118 1.6 3.2 0.00 0.00 0.00 81 1014.9
20260508192545 17 118 1.6 3.2 0.00 0.00 0.00 81 1014.8
20260508192045 17 118 3.2 4.8 0.00 0.00 0.00 80 1014.8
20260508191545 18 118 3.2 4.8 0.00 0.00 0.00 80 1014.7
20260508191051 18 121 3.2 4.8 0.00 0.00 0.00 80 1014.5
20260508190546 18 125 3.2 4.8 0.00 0.00 0.00 80 1014.5
20260508190046 18 125 3.2 4.8 0.00 0.00 0.00 79 1014.4
20260508185545 18 120 3.2 4.8 0.00 0.00 0.00 80 1014.4
20260508185053 18 133 1.6 3.2 0.00 0.00 0.00 79 1014.3
20260508184546 18 121 1.6 1.6 0.00 0.00 0.00 79 1014.3
20260508184045 18 121 1.6 4.8 0.00 0.00 0.00 77 1014.2
20260508183545 18 121 4.8 8.0 0.00 0.00 0.00 76 1014.2
20260508183046 19 76 0.0 0.0 0.00 0.00 0.00 76 1014.1
20260508182545 19 78 0.0 0.0 0.00 0.00 0.00 75 1014.0
20260508181545 20 85 0.0 0.0 0.00 0.00 0.00 75 1013.9
20260508181045 20 85 0.0 0.0 0.00 0.00 0.00 75 1013.9
20260508180546 20 85 0.0 0.0 0.00 0.00 0.00 74 1013.9
20260508175546 20 92 0.0 0.0 0.00 0.00 0.00 72 1013.8
20260508175045 20 91 0.0 1.6 0.00 0.00 0.00 72 1013.8
20260508174545 20 74 0.0 1.6 0.00 0.00 0.00 71 1013.7
20260508173545 21 74 0.0 1.6 0.00 0.00 0.00 70 1013.7
20260508173045 21 76 3.2 3.2 0.00 0.00 0.00 70 1013.6
20260508172553 21 100 3.2 4.8 0.00 0.00 0.00 70 1013.6
20260508172045 21 100 3.2 4.8 0.00 0.00 0.00 70 1013.6
20260508171545 21 111 0.0 1.6 0.00 0.00 0.00 70 1013.6
20260508170546 21 111 0.0 0.0 0.00 0.00 0.00 64 1013.5
20260508170045 21 111 0.0 0.0 0.00 0.00 0.00 66 1013.6
20260508165600 21 111 0.0 1.6 0.00 0.00 0.00 65 1013.6
20260508165045 21 111 1.6 3.2 0.00 0.00 0.00 64 1013.6
20260508164045 22 132 1.6 3.2 0.00 0.00 0.00 64 1013.6
20260508163545 22 116 3.2 4.8 0.00 0.00 0.00 64 1013.6
20260508163101 22 87 1.6 4.8 0.00 0.00 0.00 65 1013.6
20260508162545 22 87 1.6 4.8 0.00 0.00 0.00 65 1013.6
20260508162045 21 87 3.2 3.2 0.00 0.00 0.00 65 1013.6
20260508161547 21 92 3.2 4.8 0.00 0.00 0.00 65 1013.6
20260508160045 22 94 3.2 4.8 0.00 0.00 0.00 65 1013.5
20260508155548 22 105 3.2 4.8 0.00 0.00 0.00 66 1013.5
20260508155045 21 114 1.6 4.8 0.00 0.00 0.00 66 1013.4
20260508154548 22 130 3.2 4.8 0.00 0.00 0.00 66 1013.4
20260508154045 21 127 6.4 8.0 0.00 0.00 0.00 67 1013.4
20260508153544 21 119 3.2 8.0 0.00 0.00 0.00 67 1013.4
20260508152549 22 92 3.2 4.8 0.00 0.00 0.00 65 1013.4
20260508152044 22 5 3.2 4.8 0.00 0.00 0.00 64 1013.4
20260508151544 22 75 3.2 8.0 0.00 0.00 0.00 63 1013.4
20260508150545 23 5 3.2 4.8 0.00 0.00 0.00 63 1013.4
20260508150044 22 92 4.8 9.7 0.00 0.00 0.00 62 1013.5
20260508145545 22 43 4.8 8.0 0.00 0.00 0.00 63 1013.6
20260508145046 22 96 4.8 9.7 0.00 0.00 0.00 62 1013.7
20260508144545 22 89 8.0 11.3 0.00 0.00 0.00 62 1013.7
20260508143045 22 209 3.2 4.8 0.00 0.00 0.00 64 1013.9
20260508142045 22 265 3.2 4.8 0.00 0.00 0.00 64 1013.9
20260508141544 22 46 0.0 1.6 0.00 0.00 0.00 62 1013.9
20260508141044 22 46 4.8 9.7 0.00 0.00 0.00 63 1013.9
20260508140544 23 51 4.8 11.3 0.00 0.00 0.00 64 1013.9
20260508140045 23 69 4.8 8.0 0.00 0.00 0.00 63 1014.0
20260508135600 22 83 3.2 8.0 0.00 0.00 0.00 66 1014.0
20260508135045 22 82 6.4 11.3 0.00 0.00 0.00 65 1014.1
20260508134544 22 57 3.2 9.7 0.00 0.00 0.00 65 1014.1
20260508134044 22 41 1.6 8.0 0.00 0.00 0.00 65 1014.2
20260508133045 22 230 3.2 8.0 0.00 0.00 0.00 65 1014.3
20260508132544 22 183 3.2 4.8 0.00 0.00 0.00 64 1014.4
20260508132044 22 179 3.2 4.8 0.00 0.00 0.00 64 1014.4
20260508131544 22 114 3.2 8.0 0.00 0.00 0.00 67 1014.5
20260508131046 22 104 3.2 11.3 0.00 0.00 0.00 65 1014.5
20260508125544 21 132 4.8 9.7 0.00 0.00 0.00 65 1014.5
20260508125044 21 84 4.8 9.7 0.00 0.00 0.00 66 1014.6
20260508124049 21 131 3.2 8.0 0.00 0.00 0.00 67 1014.6
20260508123545 21 278 1.6 9.7 0.00 0.00 0.00 69 1014.5
20260508123044 21 90 3.2 4.8 0.00 0.00 0.00 69 1014.6
20260508121045 21 42 4.8 8.0 0.00 0.00 0.00 72 1014.6
20260508120059 21 64 4.8 8.0 0.00 0.00 0.00 72 1014.7
20260508115044 21 89 4.8 11.3 0.00 0.00 0.00 72 1014.7
20260508114544 21 55 8.0 14.5 0.00 0.00 0.00 71 1014.8
20260508114044 21 58 6.4 11.3 0.00 0.00 0.00 72 1014.7
20260508113543 21 40 4.8 8.0 0.00 0.00 0.00 72 1014.8
20260508112544 21 177 3.2 12.9 0.00 0.00 0.00 73 1014.8
20260508112044 21 113 4.8 12.9 0.00 0.00 0.00 73 1014.9
20260508111600 20 45 1.6 8.0 0.00 0.00 0.00 73 1014.9
20260508110544 20 120 4.8 11.3 0.00 0.00 0.00 73 1015.0
20260508110044 20 78 9.7 12.9 0.00 0.00 0.00 73 1015.0
20260508105547 20 84 4.8 9.7 0.00 0.00 0.00 75 1015.1
20260508105051 20 70 1.6 3.2 0.00 0.00 0.00 75 1015.2
20260508104543 20 54 4.8 8.0 0.00 0.00 0.00 75 1015.2
20260508104043 20 77 8.0 11.3 0.00 0.00 0.00 76 1015.2
20260508103545 20 118 4.8 9.7 0.00 0.00 0.00 76 1015.3
20260508103045 20 106 8.0 8.0 0.00 0.00 0.00 76 1015.3
20260508102543 20 55 6.4 8.0 0.00 0.00 0.00 75 1015.3
20260508102045 20 146 4.8 8.0 0.00 0.00 0.00 74 1015.3
20260508101544 20 62 3.2 9.7 0.00 0.00 0.00 75 1015.3
20260508101044 20 89 4.8 9.7 0.00 0.00 0.00 75 1015.3
20260508100545 20 80 3.2 4.8 0.00 0.00 0.00 76 1015.3
20260508100049 20 98 6.4 14.5 0.00 0.00 0.00 75 1015.4
20260508095543 20 109 11.3 22.5 0.00 0.00 0.00 73 1015.4
20260508095044 20 70 4.8 14.5 0.00 0.00 0.00 73 1015.4
20260508094544 20 78 8.0 19.3 0.00 0.00 0.00 72 1015.5
20260508094045 20 111 4.8 8.0 0.00 0.00 0.00 74 1015.5
20260508093543 20 115 9.7 14.5 0.00 0.00 0.00 74 1015.5
20260508093045 20 91 8.0 14.5 0.00 0.00 0.00 75 1015.6
20260508092544 20 122 11.3 19.3 0.00 0.00 0.00 74 1015.6
20260508092043 20 80 14.5 20.9 0.00 0.00 0.00 75 1015.6
20260508091545 20 112 12.9 20.9 0.00 0.00 0.00 75 1015.6
20260508090051 20 84 11.3 16.1 0.00 0.00 0.00 77 1015.4
20260508085544 19 83 6.4 12.9 0.00 0.00 0.00 80 1015.3
20260508085043 19 113 11.3 16.1 0.00 0.00 0.00 79 1015.4
20260508084043 19 98 14.5 16.1 0.00 0.00 0.00 79 1015.3
20260508083044 18 84 9.7 19.3 0.00 0.00 0.00 81 1015.3
20260508082043 18 83 11.3 20.9 0.00 0.00 0.00 82 1015.3
20260508081543 18 84 11.3 16.1 0.00 0.00 0.00 82 1015.3
20260508081043 18 101 6.4 19.3 0.00 0.00 0.00 83 1015.4
20260508080544 18 67 9.7 19.3 0.00 0.00 0.00 83 1015.3
20260508080043 18 117 8.0 14.5 0.00 0.00 0.00 84 1015.4
20260508075544 18 118 4.8 9.7 0.00 0.00 0.00 86 1015.4
20260508075043 17 91 9.7 12.9 0.00 0.00 0.00 86 1015.4
20260508074543 17 93 12.9 14.5 0.00 0.00 0.00 85 1015.4
20260508074044 17 76 6.4 11.3 0.00 0.00 0.00 86 1015.4
20260508073543 17 106 4.8 11.3 0.00 0.00 0.00 86 1015.4
20260508073044 17 114 8.0 11.3 0.00 0.00 0.00 86 1015.4
20260508072545 17 121 6.4 9.7 0.00 0.00 0.00 87 1015.4
20260508072043 17 120 6.4 11.3 0.00 0.00 0.00 87 1015.4
20260508071544 17 124 8.0 12.9 0.00 0.00 0.00 86 1015.3
20260508071043 17 106 4.8 14.5 0.00 0.00 0.00 87 1015.4
20260508065543 17 124 6.4 12.9 0.00 0.00 0.00 87 1015.3
20260508065046 17 80 6.4 12.9 0.00 0.00 0.00 88 1015.3
20260508064544 16 71 4.8 11.3 0.00 0.00 0.00 88 1015.3
20260508064043 16 89 8.0 14.5 0.00 0.00 0.00 88 1015.2
20260508063543 16 92 8.0 12.9 0.00 0.00 0.00 89 1015.3
20260508063043 16 102 9.7 19.3 0.00 0.00 0.00 89 1015.2
20260508062043 16 81 8.0 16.1 0.00 0.00 0.00 89 1015.1
20260508061545 16 106 12.9 16.1 0.00 0.00 0.00 88 1015.0
20260508061048 16 119 11.3 19.3 0.00 0.00 0.00 88 1015.1
20260508060543 16 109 9.7 16.1 0.00 0.00 0.00 88 1015.0
20260508055043 15 118 6.4 11.3 0.00 0.00 0.00 88 1014.8
20260508054543 15 106 3.2 8.0 0.00 0.00 0.00 88 1014.8
20260508053543 15 101 4.8 11.3 0.00 0.00 0.00 88 1014.7
20260508053043 15 96 4.8 11.3 0.00 0.00 0.00 88 1014.5